星链-31525 (STARLINK-31525 )

导读

STARLINK-31525是美国于2024年2月23日发射的星链卫星,隶属于SpaceX公司的星链项目。星链项目旨在构建全球卫星互联网星座,为全球提供高速宽带互联服务,该卫星入轨后将补充星链星座,进一步提升星座的覆盖能力与服务稳定性,助力全球偏远地区网络覆盖与通信服务升级。

基本信息
目录编号:
59001
目录名称:
STARLINK-31525
国际标识:
2024-036D
轨道中心:
EARTH
卫星名称:
星链-31525
卫星全名:
星链-31525 (STARLINK-31525 )
卫星状态:
已陨落 最后检测时间 2024-06-01
发射日期:
2024-02-23 UTC
国别 :
美国 (US)
星等 :
--
轨道信息
数据来源 国际轨道数据
星历时间: 2024-06-02T01:04:01+0800
轨道信息已过期786天
半长轴: 6554.275km
偏心率: 0.0006187
轨道倾角: 53.121°
近地点辐角 16.026°
升交点赤经 188.769°
平近点角 104.910°
近地点: 172.084km
远地点: 180.196km
周期: 88.013分钟
每日圈数: 16.361227
详细信息
固有亮度:
5
最大亮度:
0.3
卫星平台:
Starlink v2.0 mini
覆盖范围:
全球
运营商:
太空探索技术公司
运营商所在国:
美国
制造商(研发单位):
太空探索技术公司
制造商所在国:
美国
使用方式:
暂无
卫星简介
星链(Starlink)计划是由太空探索技术公司(SpaceX)提出的一个巨型低轨卫星互联网星座项目,计划在2019年至2024年间在太空搭建由约1.2万颗卫星组成的“星链”网络,其中1584颗将部署在地球上空550千米处的近地轨道,并从2020年开始工作。该卫星已陨落。